Location: Alfortville
(48.8058°N, 2.4204°E)
Time: 03:17:36
(UTC+00:00)

Cosmos 1980 Rocket - Pass Details

Date: 30 May 2022
Orbit: 827 x 851 km, 71.0° (Epoch: 05 July)

Event Time Altitude Azimuth Distance (km) Brightness Sun altitude
Rises 21:03:08 0° 231° (SW) 3,378 5.3 -10.3°
Reaches altitude 10° 21:05:42 10° 239° (WSW) 2,452 4.7 -10.6°
Maximum altitude 21:10:59 40° 308° (NW) 1,224 3.7 -11.1°
Drops below altitude 10° 21:16:20 10° 18° (NNE) 2,480 5.2 -11.7°
Sets 21:18:58 0° 26° (NNE) 3,422 5.8 -11.9°
